EW6519 Weather Reports


Display with metric or nautical units.
time (UTC)temp
F
wind
direction
speed
MPH
gust
MPH
rain 1hr
in
rain 24hr
in
rain mn
in
humidity
%
barometer
mb
20260507010040 54 6 0.0 0.0 0.00 0.59 0.43 64 1013.2
20260507004532 54 283 0.0 0.0 0.00 0.60 0.43 62 1013.1
20260507003031 55 292 0.0 1.0 0.00 0.60 0.43 61 1013.2
20260507001534 55 339 0.0 0.0 0.00 0.60 0.43 59 1012.9
20260507000029 56 20 0.0 1.0 0.00 0.60 0.43 60 1012.9
20260506234528 57 292 0.0 2.0 0.00 0.61 0.43 59 1012.5
20260506233027 57 112 0.0 5.0 0.00 0.61 0.43 58 1012.4
20260506231527 57 302 0.0 3.0 0.00 0.61 0.43 57 1012.4
20260506230026 57 340 0.0 3.0 0.00 0.61 0.43 58 1012.0
20260506224526 58 281 0.0 3.0 0.00 0.62 0.43 56 1012.2
20260506223025 57 288 0.0 4.0 0.00 0.62 0.43 55 1012.3
20260506221524 58 28 1.0 5.0 0.00 0.62 0.43 53 1012.5
20260506220024 59 89 0.0 1.0 0.00 0.62 0.43 54 1012.7
20260506214523 59 298 0.0 0.0 0.00 0.65 0.43 52 1012.6
20260506213021 60 293 0.0 3.0 0.00 0.65 0.43 52 1012.4
20260506211524 59 23 0.0 7.0 0.00 0.65 0.43 53 1012.3
20260506210024 59 285 1.0 5.0 0.00 0.65 0.43 51 1012.2
20260506204520 59 285 0.0 0.0 0.00 0.81 0.43 51 1012.0
20260506203019 59 319 0.0 6.0 0.00 0.81 0.43 56 1012.0
20260506201520 60 248 0.0 4.0 0.00 0.81 0.43 56 1012.1
20260506200019 60 81 1.0 7.0 0.00 0.81 0.43 54 1012.1
20260506194518 60 265 0.0 3.0 0.00 1.01 0.43 52 1012.2
20260506193017 60 283 1.0 6.0 0.00 1.01 0.43 50 1012.2
20260506191518 60 266 0.0 6.0 0.00 1.01 0.43 53 1011.7
20260506190015 61 305 2.0 5.0 0.00 1.01 0.43 51 1011.7
20260506184513 61 233 2.0 5.0 0.00 1.01 0.43 51 1011.6
20260506183012 59 86 0.0 11.0 0.00 1.01 0.43 54 1011.7
20260506181509 59 288 1.0 7.0 0.00 1.01 0.43 55 1011.6
20260506180013 59 50 0.0 9.0 0.00 1.01 0.43 55 1011.9
20260506174509 59 291 3.0 9.0 0.00 1.01 0.43 52 1012.0
20260506173016 58 273 0.0 9.0 0.00 1.01 0.43 54 1012.2
20260506171505 57 345 1.0 8.0 0.00 1.01 0.43 55 1012.3
20260506170004 56 281 0.0 4.0 0.00 1.01 0.43 58 1012.4
20260506164503 56 48 2.0 7.0 0.00 1.01 0.43 63 1012.4
20260506163107 55 280 0.0 5.0 0.00 1.01 0.43 64 1012.4
20260506161641 54 65 0.0 4.0 0.00 1.01 0.43 66 1012.4
20260506160111 53 10 0.0 4.0 0.00 1.01 0.43 66 1012.4
20260506154600 53 30 1.0 7.0 0.00 1.01 0.43 69 1012.1
20260506153058 53 32 3.0 8.0 0.00 1.01 0.43 69 1012.0
20260506151600 52 355 1.0 7.0 0.00 1.01 0.43 73 1012.3
20260506150057 52 302 2.0 7.0 0.00 1.01 0.43 72 1011.6
20260506144555 51 286 0.0 4.0 0.00 1.01 0.43 77 1011.5
20260506143052 50 299 0.0 3.0 0.00 1.01 0.43 78 1011.2
20260506141550 49 51 0.0 5.0 0.00 1.01 0.43 81 1011.1
20260506140050 49 290 0.0 3.0 0.00 1.01 0.43 84 1010.9
20260506134549 48 297 0.0 5.0 0.00 1.01 0.43 84 1010.9
20260506133046 48 18 0.0 0.0 0.00 1.01 0.43 86 1010.9
20260506131550 47 276 0.0 5.0 0.00 1.01 0.43 88 1010.6
20260506130058 46 288 0.0 4.0 0.00 1.01 0.43 89 1010.2
20260506124551 45 280 1.0 5.0 0.00 1.01 0.43 89 1010.5
20260506123042 45 276 1.0 6.0 0.00 1.01 0.43 90 1010.4
20260506121539 45 307 0.0 4.0 0.00 1.01 0.43 91 1010.1
20260506120037 44 26 0.0 0.0 0.00 1.01 0.43 92 1009.8
20260506114535 44 327 0.0 1.0 0.00 1.02 0.43 93 1009.6
20260506113040 44 294 0.0 4.0 0.00 1.02 0.43 93 1009.0
20260506111531 43 255 0.0 4.0 0.00 1.02 0.43 94 1008.9
20260506110031 43 337 0.0 0.0 0.00 1.02 0.43 94 1008.7
20260506104529 43 328 0.0 8.0 0.00 1.05 0.43 94 1008.3
20260506103033 43 304 0.0 4.0 0.00 1.05 0.43 95 1008.2
20260506101539 43 302 0.0 3.0 0.00 1.05 0.43 95 1007.9
20260506100023 44 336 0.0 4.0 0.00 1.05 0.43 95 1007.4
20260506094525 44 277 0.0 3.0 0.00 1.05 0.43 95 1007.7
20260506093023 44 306 0.0 2.0 0.01 1.05 0.43 96 1007.7
20260506091519 44 321 0.0 3.0 0.01 1.05 0.43 96 1007.6
20260506090017 44 328 2.0 7.0 0.01 1.05 0.43 96 1006.9
20260506084515 44 307 2.0 7.0 0.02 1.05 0.43 96 1006.9
20260506083012 45 284 3.0 7.0 0.01 1.04 0.42 96 1006.8
20260506081510 45 312 5.0 13.0 0.02 1.04 0.42 96 1006.4
20260506073005 46 302 4.0 12.0 0.12 1.03 0.41 97 1006.1
20260506071601 47 353 3.0 8.0 0.15 1.02 0.40 97 1006.2
20260506061547 49 254 4.0 8.0 0.15 0.87 0.25 96 1005.3
20260506044608 58 235 1.0 10.0 0.05 0.67 0.05 97 1004.6
20260506043032 58 250 0.0 7.0 0.05 0.67 0.05 97 1004.8
20260506041528 58 161 0.0 0.0 0.03 0.65 0.03 97 1004.7
20260506040028 58 156 0.0 0.0 0.00 0.62 0.00 97 1004.7
20260506034548 59 146 0.0 0.0 0.01 0.62 0.62 97 1004.8
20260506033024 59 178 0.0 0.0 0.02 0.62 0.62 97 1004.9
20260506031524 59 214 0.0 0.0 0.02 0.62 0.62 97 1005.3
20260506030022 59 101 0.0 0.0 0.04 0.62 0.62 97 1005.4
20260506024522 59 101 0.0 0.0 0.05 0.61 0.61 97 1005.2
20260506023022 59 252 0.0 0.0 0.05 0.60 0.60 96 1006.0
20260506021520 59 252 0.0 0.0 0.07 0.60 0.60 96 1005.9
20260506020020 59 252 0.0 0.0 0.08 0.57 0.57 96 1005.6
20260506014526 59 240 0.0 2.0 0.11 0.56 0.56 96 1005.9
20260506013019 59 225 0.0 0.0 0.10 0.55 0.55 96 1005.8
20260506011518 60 200 0.0 0.0 0.07 0.52 0.52 95 1005.6